• In Moldova, Republic
  • List of Countries
  • For 7 days
  • Water Temperature
  • Satellite Maps
  • Weather Map
  • Weather Widgets
  • user-avatar
    Login

    Hourly Weather Sarajevo

    Today, 24 June, Monday

    Time Temperature Precipitation Wind Pressure Humidity
    00:00 +15°C° 0 mm 1 mps 689 mmHg 91%
    01:00 +14°C° 0 mm 1 mps 689 mmHg 91%
    02:00 +14°C° 0 mm 1 mps 689 mmHg 92%
    03:00 +14°C° 0 mm 1 mps 689 mmHg 93%
    04:00 +14°C° 0 mm 1 mps 689 mmHg 94%
    05:00 +15°C° 0 mm 2 mps 689 mmHg 93%
    06:00 +16°C° 0 mm 2 mps 689 mmHg 92%
    07:00 +18°C° 0 mm 2 mps 690 mmHg 91%
    08:00 +19°C° 0 mm 2 mps 690 mmHg 83%
    09:00 +21°C° 0 mm 2 mps 690 mmHg 74%
    10:00 +23°C° 0 mm 2 mps 691 mmHg 66%
    11:00 +23°C° 0.2 mm 2 mps 691 mmHg 67%
    12:00 +23°C° 0.2 mm 2 mps 691 mmHg 68%
    13:00 +23°C° 0.2 mm 2 mps 691 mmHg 69%
    14:00 +23°C° 0.2 mm 2 mps 691 mmHg 70%
    15:00 +23°C° 0.2 mm 2 mps 691 mmHg 70%
    16:00 +23°C° 0.2 mm 2 mps 690 mmHg 70%
    17:00 +21°C° 0.1 mm 2 mps 691 mmHg 77%
    18:00 +20°C° 0.1 mm 2 mps 691 mmHg 84%
    19:00 +18°C° 0.1 mm 2 mps 691 mmHg 91%
    20:00 +17°C° 0 mm 2 mps 691 mmHg 92%
    21:00 +17°C° 0 mm 2 mps 691 mmHg 94%
    22:00 +16°C° 0 mm 2 mps 690 mmHg 96%
    23:00 +16°C° 0 mm 2 mps 691 mmHg 96%

    Tomorrow, 25 June, Tuesday

    Time Temperature Precipitation Wind Pressure Humidity
    00:00 +16°C° 0 mm 2 mps 691 mmHg 96%
    01:00 +16°C° 0 mm 2 mps 691 mmHg 97%
    02:00 +16°C° 0 mm 2 mps 691 mmHg 97%
    03:00 +16°C° 0 mm 2 mps 691 mmHg 96%
    04:00 +15°C° 0 mm 2 mps 690 mmHg 96%
    05:00 +16°C° 0 mm 2 mps 691 mmHg 94%
    06:00 +17°C° 0 mm 3 mps 692 mmHg 92%
    07:00 +18°C° 0 mm 3 mps 692 mmHg 90%
    08:00 +20°C° 0 mm 3 mps 693 mmHg 86%
    09:00 +21°C° 0 mm 2 mps 693 mmHg 81%
    10:00 +23°C° 0 mm 2 mps 694 mmHg 76%
    11:00 +24°C° 0 mm 2 mps 694 mmHg 72%
    12:00 +25°C° 0 mm 2 mps 694 mmHg 67%
    13:00 +26°C° 0 mm 2 mps 694 mmHg 62%
    14:00 +27°C° 0.1 mm 2 mps 694 mmHg 64%
    15:00 +27°C° 0.1 mm 2 mps 694 mmHg 65%
    16:00 +27°C° 0.1 mm 2 mps 694 mmHg 66%
    17:00 +25°C° 0.3 mm 2 mps 694 mmHg 73%
    18:00 +24°C° 0.3 mm 2 mps 694 mmHg 81%
    19:00 +21°C° 0.3 mm 2 mps 694 mmHg 88%
    20:00 +20°C° 0 mm 2 mps 694 mmHg 89%
    21:00 +20°C° 0 mm 2 mps 694 mmHg 90%
    22:00 +19°C° 0 mm 2 mps 694 mmHg 91%
    23:00 +18°C° 0 mm 2 mps 694 mmHg 92%

    Day after tomorrow, 26 June, Wednesday

    Time Temperature Precipitation Wind Pressure Humidity
    00:00 +18°C° 0 mm 2 mps 693 mmHg 93%
    01:00 +17°C° 0 mm 2 mps 693 mmHg 94%
    02:00 +17°C° 0 mm 2 mps 693 mmHg 94%
    03:00 +17°C° 0 mm 2 mps 693 mmHg 94%
    04:00 +17°C° 0 mm 2 mps 693 mmHg 94%
    05:00 +18°C° 0 mm 2 mps 693 mmHg 92%
    06:00 +19°C° 0 mm 2 mps 694 mmHg 89%
    07:00 +21°C° 0 mm 2 mps 694 mmHg 87%
    08:00 +23°C° 0 mm 2 mps 694 mmHg 79%
    09:00 +25°C° 0 mm 2 mps 695 mmHg 71%
    10:00 +26°C° 0 mm 3 mps 695 mmHg 63%
    11:00 +27°C° 0 mm 3 mps 695 mmHg 62%
    12:00 +28°C° 0 mm 3 mps 695 mmHg 60%
    13:00 +29°C° 0 mm 3 mps 695 mmHg 58%
    14:00 +29°C° 0 mm 3 mps 695 mmHg 60%
    15:00 +29°C° 0 mm 3 mps 694 mmHg 61%
    16:00 +28°C° 0 mm 3 mps 694 mmHg 62%
    17:00 +27°C° 0.1 mm 3 mps 694 mmHg 71%
    18:00 +25°C° 0.1 mm 2 mps 693 mmHg 80%
    19:00 +23°C° 0.1 mm 2 mps 693 mmHg 88%
    20:00 +21°C° 0 mm 2 mps 693 mmHg 91%
    21:00 +20°C° 0 mm 2 mps 693 mmHg 93%
    22:00 +19°C° 0 mm 2 mps 693 mmHg 95%
    23:00 +19°C° 0 mm 2 mps 693 mmHg 96%

    27 June, Thursday

    Time Temperature Precipitation Wind Pressure Humidity
    00:00 +19°C° 0 mm 2 mps 693 mmHg 96%
    01:00 +18°C° 0 mm 2 mps 693 mmHg 97%
    02:00 +18°C° 0 mm 2 mps 692 mmHg 97%
    03:00 +18°C° 0 mm 2 mps 692 mmHg 97%
    04:00 +17°C° 0 mm 2 mps 692 mmHg 97%
    05:00 +19°C° 0 mm 2 mps 692 mmHg 95%
    06:00 +20°C° 0 mm 2 mps 692 mmHg 93%
    07:00 +21°C° 0 mm 2 mps 692 mmHg 91%
    08:00 +23°C° 0 mm 2 mps 692 mmHg 81%
    09:00 +25°C° 0 mm 2 mps 693 mmHg 70%
    10:00 +27°C° 0 mm 2 mps 693 mmHg 60%
    11:00 +28°C° 0 mm 2 mps 693 mmHg 55%
    12:00 +29°C° 0 mm 2 mps 693 mmHg 50%
    13:00 +30°C° 0 mm 2 mps 693 mmHg 46%
    14:00 +30°C° 0 mm 2 mps 692 mmHg 48%
    15:00 +30°C° 0 mm 2 mps 692 mmHg 50%
    16:00 +29°C° 0 mm 3 mps 692 mmHg 52%
    17:00 +27°C° 0 mm 2 mps 691 mmHg 60%
    18:00 +25°C° 0 mm 2 mps 691 mmHg 67%
    19:00 +21°C° 0 mm 2 mps 690 mmHg 75%
    20:00 +20°C° 0 mm 2 mps 690 mmHg 78%
    21:00 +20°C° 0 mm 2 mps 690 mmHg 80%
    22:00 +19°C° 0 mm 2 mps 690 mmHg 83%
    23:00 +19°C° 0 mm 2 mps 690 mmHg 85%

    28 June, Friday

    Time Temperature Precipitation Wind Pressure Humidity
    00:00 +19°C° 0 mm 2 mps 690 mmHg 86%
    01:00 +19°C° 0 mm 2 mps 690 mmHg 88%
    02:00 +18°C° 0 mm 2 mps 690 mmHg 89%
    03:00 +18°C° 0 mm 2 mps 689 mmHg 91%
    04:00 +18°C° 0 mm 2 mps 689 mmHg 93%
    05:00 +19°C° 0 mm 3 mps 689 mmHg 88%
    06:00 +20°C° 0 mm 3 mps 689 mmHg 83%
    07:00 +20°C° 0 mm 4 mps 690 mmHg 78%
    08:00 +21°C° 0 mm 4 mps 690 mmHg 72%
    09:00 +22°C° 0 mm 4 mps 690 mmHg 66%
    10:00 +23°C° 0 mm 4 mps 690 mmHg 59%
    11:00 +25°C° 0 mm 4 mps 690 mmHg 57%
    12:00 +26°C° 0 mm 4 mps 690 mmHg 54%
    13:00 +26°C° 0 mm 4 mps 690 mmHg 52%
    14:00 +26°C° 0 mm 4 mps 690 mmHg 53%
    15:00 +25°C° 0 mm 4 mps 690 mmHg 54%
    16:00 +25°C° 0 mm 4 mps 689 mmHg 55%
    17:00 +22°C° 0 mm 4 mps 689 mmHg 63%
    18:00 +20°C° 0 mm 3 mps 689 mmHg 72%
    19:00 +18°C° 0 mm 3 mps 689 mmHg 81%
    20:00 +17°C° 0 mm 3 mps 689 mmHg 85%
    21:00 +16°C° 0 mm 3 mps 689 mmHg 89%
    22:00 +14°C° 0 mm 3 mps 689 mmHg 94%
    23:00 +14°C° 0 mm 3 mps 688 mmHg 94%

    29 June, Saturday

    Time Temperature Precipitation Wind Pressure Humidity
    00:00 +13°C° 0 mm 3 mps 688 mmHg 95%
    01:00 +13°C° 0 mm 3 mps 688 mmHg 95%
    02:00 +13°C° 0 mm 3 mps 688 mmHg 95%
    03:00 +13°C° 0 mm 3 mps 688 mmHg 95%
    04:00 +13°C° 0 mm 3 mps 688 mmHg 95%
    05:00 +14°C° 0 mm 3 mps 688 mmHg 91%
    06:00 +16°C° 0 mm 3 mps 688 mmHg 86%
    07:00 +18°C° 0 mm 3 mps 689 mmHg 82%
    08:00 +19°C° 0 mm 3 mps 689 mmHg 76%
    09:00 +20°C° 0 mm 4 mps 689 mmHg 70%
    10:00 +21°C° 0 mm 4 mps 690 mmHg 63%
    11:00 +22°C° 0 mm 4 mps 690 mmHg 61%
    12:00 +23°C° 0 mm 4 mps 690 mmHg 58%
    13:00 +25°C° 0 mm 4 mps 690 mmHg 56%
    14:00 +23°C° 0 mm 4 mps 690 mmHg 58%
    15:00 +23°C° 0 mm 4 mps 690 mmHg 59%
    16:00 +23°C° 0 mm 4 mps 690 mmHg 61%
    17:00 +21°C° 0 mm 4 mps 689 mmHg 69%
    18:00 +19°C° 0 mm 3 mps 689 mmHg 77%
    19:00 +17°C° 0 mm 3 mps 689 mmHg 85%
    20:00 +16°C° 0 mm 3 mps 689 mmHg 88%
    21:00 +14°C° 0 mm 3 mps 689 mmHg 91%
    22:00 +12°C° 0 mm 3 mps 689 mmHg 94%
    23:00 +12°C° 0 mm 3 mps 689 mmHg 94%
    Show more